TimeCET,TemperatureF,Dew PointF,Humidity,Sea Level PressureIn,VisibilityMPH,Wind Direction,Wind SpeedMPH,Gust SpeedMPH,PrecipitationIn,Events,Conditions,WindDirDegrees,DateUTC
12:20 AM,46.4,44.6,93,29.53,6.2,Variable,1.2,-,N/A,,Scattered Clouds,0,2013-12-26 23:20:00
12:50 AM,46.4,44.6,93,29.53,5.0,Calm,Calm,-,N/A,,Scattered Clouds,0,2013-12-26 23:50:00
1:00 AM,47,45,88,29.55,5,SSW,1.2,,,,Mist,210,2013-12-27 00:00:00
1:20 AM,46.4,44.6,93,29.53,5.0,Variable,1.2,-,N/A,,Scattered Clouds,0,2013-12-27 00:20:00
1:50 AM,48.2,46.4,93,29.56,4.3,NNW,3.5,-,N/A,Rain,Light Rain,330,2013-12-27 00:50:00
2:20 AM,48.2,46.4,93,29.56,5.0,WNW,3.5,-,N/A,Rain,Light Rain,290,2013-12-27 01:20:00
2:50 AM,48.2,46.4,93,29.56,5.0,South,3.5,-,N/A,Rain,Light Rain,180,2013-12-27 01:50:00
3:20 AM,50.0,44.6,82,29.56,5.0,West,5.8,-,N/A,Rain,Light Rain,270,2013-12-27 02:20:00
3:50 AM,48.2,44.6,87,29.56,5.0,South,3.5,-,N/A,Rain,Light Rain,180,2013-12-27 02:50:00
4:00 AM,49,45,81,29.58,5,NNE,1.2,,,Rain,Light Rain,30,2013-12-27 03:00:00
4:20 AM,48.2,44.6,87,29.56,5.0,Variable,1.2,-,N/A,Rain,Light Rain,0,2013-12-27 03:20:00
4:50 AM,46.4,44.6,93,29.56,5.0,Variable,1.2,-,N/A,Rain,Light Rain,0,2013-12-27 03:50:00
5:20 AM,44.6,42.8,93,29.59,6.2,Variable,1.2,-,N/A,,Partly Cloudy,0,2013-12-27 04:20:00
5:50 AM,42.8,41.0,93,29.59,6.2,Variable,2.3,-,N/A,,Partly Cloudy,0,2013-12-27 04:50:00
6:20 AM,42.8,41.0,93,29.62,6.2,Calm,Calm,-,N/A,,Partly Cloudy,0,2013-12-27 05:20:00
6:50 AM,42.8,41.0,93,29.62,6.2,NNE,1.2,-,N/A,,Scattered Clouds,30,2013-12-27 05:50:00
7:00 AM,44,42,88,29.65,6,NNE,1.2,,,,Partly Cloudy,20,2013-12-27 06:00:00
7:20 AM,44.6,42.8,93,29.65,6.2,Variable,2.3,-,N/A,,Scattered Clouds,0,2013-12-27 06:20:00
7:50 AM,42.8,41.0,93,29.65,6.2,Variable,2.3,-,N/A,,Scattered Clouds,0,2013-12-27 06:50:00
8:20 AM,46.4,44.6,93,29.68,6.2,Variable,2.3,-,N/A,,Scattered Clouds,0,2013-12-27 07:20:00
8:50 AM,48.2,44.6,87,29.68,6.2,Variable,1.2,-,N/A,,Scattered Clouds,0,2013-12-27 07:50:00
9:20 AM,48.2,46.4,93,29.71,6.2,NNW,2.3,-,N/A,,Scattered Clouds,340,2013-12-27 08:20:00
9:50 AM,48.2,44.6,87,29.71,6.2,Variable,2.3,-,N/A,,Scattered Clouds,0,2013-12-27 08:50:00
10:00 AM,49,46,85,29.74,6,NNE,1.2,,,,Partly Cloudy,30,2013-12-27 09:00:00
10:20 AM,50.0,46.4,87,29.74,6.2,Calm,Calm,-,N/A,,Mostly Cloudy,0,2013-12-27 09:20:00
10:50 AM,51.8,48.2,88,29.74,6.2,SSW,1.2,-,N/A,,Mostly Cloudy,210,2013-12-27 09:50:00
11:20 AM,53.6,48.2,82,29.74,6.2,Variable,2.3,-,N/A,,Mostly Cloudy,0,2013-12-27 10:20:00
11:50 AM,53.6,48.2,82,29.74,6.2,Variable,2.3,-,N/A,,Mostly Cloudy,0,2013-12-27 10:50:00
12:20 PM,53.6,48.2,82,29.74,6.2,North,3.5,-,N/A,,Mostly Cloudy,360,2013-12-27 11:20:00
12:50 PM,53.6,48.2,82,29.74,6.2,Variable,2.3,-,N/A,,Mostly Cloudy,0,2013-12-27 11:50:00
1:00 PM,54,49,78,29.77,6,East,2.3,,,,Partly Cloudy,80,2013-12-27 12:00:00
1:50 PM,55.4,46.4,72,29.77,6.2,Variable,2.3,-,N/A,,Mostly Cloudy,0,2013-12-27 12:50:00
2:20 PM,55.4,46.4,72,29.77,6.2,SW,1.2,-,N/A,,Mostly Cloudy,230,2013-12-27 13:20:00
2:50 PM,55.4,42.8,63,29.77,6.2,WNW,4.6,-,N/A,,Mostly Cloudy,290,2013-12-27 13:50:00
3:20 PM,55.4,42.8,63,29.77,6.2,West,4.6,-,N/A,,Mostly Cloudy,270,2013-12-27 14:20:00
3:50 PM,55.4,44.6,67,29.80,6.2,West,4.6,-,N/A,,Mostly Cloudy,260,2013-12-27 14:50:00
4:00 PM,55,44,58,29.81,6,WSW,2.3,,,,Mostly Cloudy,250,2013-12-27 15:00:00
4:20 PM,55.4,42.8,63,29.80,6.2,WSW,3.5,-,N/A,,Mostly Cloudy,250,2013-12-27 15:20:00
4:50 PM,53.6,44.6,72,29.80,6.2,Variable,1.2,-,N/A,,Mostly Cloudy,0,2013-12-27 15:50:00
5:20 PM,53.6,44.6,72,29.83,6.2,Variable,1.2,-,N/A,,Mostly Cloudy,0,2013-12-27 16:20:00
5:50 PM,53.6,44.6,72,29.83,6.2,Calm,Calm,-,N/A,,Mostly Cloudy,0,2013-12-27 16:50:00
6:20 PM,50.0,42.8,76,29.86,5.0,Variable,5.8,-,N/A,Rain,Rain,0,2013-12-27 17:20:00
6:50 PM,50.0,44.6,82,29.86,5.0,ESE,3.5,-,N/A,Rain,Rain,120,2013-12-27 17:50:00
7:00 PM,50,45,75,29.88,5,ESE,3.5,,,,Mostly Cloudy,120,2013-12-27 18:00:00
7:20 PM,50.0,44.6,82,29.89,5.0,Variable,2.3,-,N/A,Rain,Rain,0,2013-12-27 18:20:00
7:50 PM,50.0,46.4,87,29.89,5.0,SSE,2.3,-,N/A,Rain,Light Rain,160,2013-12-27 18:50:00
8:20 PM,50.0,46.4,87,29.89,5.0,Variable,2.3,-,N/A,Rain,Light Rain,0,2013-12-27 19:20:00
8:50 PM,50.0,46.4,87,29.89,5.0,West,2.3,-,N/A,Rain,Light Rain,270,2013-12-27 19:50:00
9:20 PM,50.0,46.4,87,29.89,5.0,East,3.5,-,N/A,Rain,Light Rain,80,2013-12-27 20:20:00
9:50 PM,50.0,46.4,87,29.89,5.0,Variable,2.3,-,N/A,,Mostly Cloudy,0,2013-12-27 20:50:00
10:00 PM,50,46,81,29.92,5,East,2.3,,,,Mist,90,2013-12-27 21:00:00
10:20 PM,50.0,46.4,87,29.89,5.0,East,3.5,-,N/A,,Mostly Cloudy,80,2013-12-27 21:20:00
10:50 PM,50.0,46.4,87,29.92,5.0,Calm,Calm,-,N/A,,Mostly Cloudy,0,2013-12-27 21:50:00
11:20 PM,50.0,44.6,82,29.92,5.0,NNE,3.5,-,N/A,,Mostly Cloudy,30,2013-12-27 22:20:00
11:50 PM,50.0,44.6,82,29.92,5.0,North,2.3,-,N/A,,Mostly Cloudy,10,2013-12-27 22:50:00